Torna al catalogo

STARLINK-38073

AttivoComunicazioniSSO
NORAD 69986·PAYLOAD·🇺🇸 United States

Lanciato Jul 11, 2026 da Vandenberg Space Force Base

Loading…

Prossimi Passaggi (prossime 24 ore)

TLE

AggiornatoSource: CelesTrak SupGP

Epoca: Sep 14, 2026, 15:56 UTC

1 69986C 26159M   26257.66437500 -.00049799  00000+0 -91762-3 0  2578
2 69986  97.2845  99.3558 0001854  88.7855 106.2365 15.49209707    11

Traccia STARLINK-38073 in tempo reale con AllMySat

Download on the App Store